Temperature
15 16 16 16 16 15 15 16 16 16 17 16 16 16 16 16 16 16 16 16 16 15 15 15 15 16 16 16 16 16 16 16 16 14 13 12 12 12 12 12 13 13 13
16 16 16 16 16 15 15 16 16 16 16 16 16 16 16 16 16 16 16 15 15 15 15 15 15 15 15 15 16 16 16 16 16 16 13 12 11 11 11 11 12 12 12
16 16 16 15 16 16 16 16 16 16 16 15 15 15 15 15 16 16 16 15 15 15 15 15 16 16 15 15 16 16 16 16 16 16 15 13 11 11 10 10 11 11 12
16 16 15 15 15 16 16 16 16 15 15 15 15 15 15 15 15 15 16 15 16 16 16 16 16 16 16 16 17 16 16 16 16 15 15 13 11 10 10 10 11 11 11
16 15 15 15 16 16 16 15 14 14 14 15 15 15 15 15 15 15 15 15 16 16 16 16 16 17 17 17 16 16 16 16 16 15 15 14 12 11 10 10 10 10 10
16 15 15 15 16 16 16 15 14 14 14 14 14 14 14 14 15 15 15 15 15 15 15 16 16 16 16 16 16 16 16 15 16 16 15 15 14 12 11 10 10 10 10
16 15 15 15 16 16 15 15 14 14 13 13 14 14 14 14 15 15 15 15 15 15 15 15 15 16 16 16 16 16 15 14 15 15 16 16 15 14 12 11 10 10 10
16 16 15 15 15 15 14 14 14 13 13 13 13 13 13 14 14 15 15 15 15 15 14 14 15 15 15 15 15 15 15 14 14 15 15 16 15 15 13 12 11 10 9
16 16 15 14 14 14 13 13 13 13 12 13 13 13 13 13 14 14 14 14 14 13 13 14 14 14 14 14 15 15 15 15 15 15 15 15 15 15 14 12 11 10 9
16 15 14 14 14 13 13 13 13 12 12 12 13 13 13 13 13 13 13 13 13 13 13 13 13 14 13 13 14 15 14 14 15 15 15 15 14 14 13 13 13 11 10
15 14 14 14 13 13 13 13 12 12 12 12 12 13 13 13 13 13 13 12 13 13 13 13 13 13 13 13 13 14 14 13 14 15 14 14 14 13 13 12 12 12 11
13 13 13 13 12 12 12 12 12 12 12 12 12 12 12 12 13 13 13 12 12 13 13 13 13 13 12 12 12 13 13 13 13 13 14 14 14 14 13 13 12 12 11
12 12 12 12 12 12 12 12 12 12 12 12 12 12 12 12 12 12 12 12 12 12 13 13 13 12 12 12 12 12 12 12 12 13 13 13 13 13 13 12 11 11 10
11 11 11 11 11 12 12 12 12 12 12 12 12 12 12 12 12 12 12 12 12 12 12 13 12 12 11 11 11 11 11 12 12 13 13 12 12 12 12 12 11 10 10
11 10 10 11 11 11 11 11 11 11 12 12 12 12 12 12 12 12 12 12 12 12 12 12 12 12 11 11 11 11 11 11 12 13 13 13 12 12 12 12 11 11 11
11 11 10 11 11 11 11 11 11 11 11 12 12 12 12 12 12 11 11 11 11 11 11 11 12 12 11 11 11 11 11 11 12 13 13 13 13 12 12 12 12 11 11
11 11 11 11 11 11 11 11 11 11 11 12 12 11 11 11 11 11 11 11 10 10 10 11 11 11 11 11 11 11 11 11 12 12 13 13 13 12 12 12 12 12 11
11 11 11 11 11 11 11 11 11 11 11 11 11 11 11 11 11 11 11 10 10 10 10 10 10 10 11 11 11 11 11 11 11 12 12 12 12 12 13 13 13 12 11
12 11 11 11 11 11 11 11 11 11 11 11 11 11 10 10 10 10 10 10 10 10 10 10 10 10 10 10 10 10 11 11 11 11 12 12 12 12 12 13 13 12 11
11 11 11 11 11 11 11 11 11 11 10 10 10 10 10 10 10 10 9 9 9 9 9 9 9 10 10 10 10 10 10 10 10 11 11 11 11 12 12 12 12 12 11
11 11 11 11 11 11 11 11 11 10 10 10 10 9 10 9 9 9 9 9 9 9 9 9 9 9 9 10 10 10 10 10 10 11 11 11 11 11 12 12 12 11 10
10 10 10 11 11 11 11 11 10 10 10 10 10 10 10 9 9 9 9 9 9 9 9 9 9 9 9 9 9 9 9 9 10 10 11 11 11 11 11 11 11 11 10
10 10 10 10 11 11 11 11 11 10 10 10 10 10 10 10 10 10 10 10 9 9 9 9 9 9 9 9 9 9 9 9 10 10 10 11 11 11 11 11 11 10 10
10 10 10 10 10 10 10 10 10 10 10 10 10 10 10 10 10 10 10 10 10 9 9 9 9 9 9 9 9 9 9 9 9 10 9 10 10 10 10 10 10 10 9
10 10 10 10 10 10 10 10 10 10 10 10 10 10 10 10 10 10 10 10 10 10 10 10 10 9 9 9 9 9 9 9 9 9 9 9 9 9 9 9 9 9 9
10 10 10 10 10 10 10 10 10 10 10 10 10 10 10 10 10 10 10 10 10 10 10 10 9 9 9 9 9 9 9 9 9 9 9 9 9 9 9 9 8 8 8
Wind_Speed
8 8 6 4 3 4 4 4 4 3 3 5 5 5 6 5 6 6 6 5 6 6 6 7 7 5 3 9 5 6 7 7 6 4 5 6 5 7 13 15 14 14 13
7 8 8 6 5 1 5 6 3 1 2 3 5 7 7 7 7 8 9 8 8 8 9 9 10 9 11 11 6 7 8 8 9 10 8 5 5 7 7 9 12 12 11
7 8 8 9 9 8 7 5 3 4 4 6 6 6 5 6 7 8 9 9 9 9 10 10 11 11 10 8 8 8 8 10 9 11 9 4 4 5 7 8 10 10 10
11 9 9 9 10 9 7 4 4 5 6 6 5 4 6 7 6 7 8 9 9 9 9 8 7 7 11 11 9 8 10 12 12 12 11 7 4 5 6 8 6 4 5
10 11 10 9 8 7 6 5 5 5 5 4 3 3 4 5 6 5 7 7 7 6 5 3 4 7 11 6 4 3 8 12 12 12 11 8 5 7 8 6 7 5 5
9 9 9 8 8 7 5 4 3 2 2 4 5 4 5 5 2 2 3 4 3 5 5 4 6 6 8 7 8 10 7 8 14 13 10 11 10 8 7 6 6 6 4
10 9 8 5 6 6 5 3 2 1 3 5 6 5 4 4 6 4 4 4 4 3 4 4 4 5 5 6 7 8 7 2 9 13 15 14 14 14 12 10 8 8 5
8 11 9 8 8 7 6 6 5 4 5 5 5 4 2 4 8 7 5 4 5 4 4 5 6 5 2 4 5 6 8 7 8 11 14 14 12 13 13 10 9 7 5
7 10 10 8 8 8 7 6 5 5 6 5 4 4 4 4 9 9 7 3 3 4 5 5 7 7 6 6 5 3 5 4 6 10 15 19 22 23 19 10 10 7 6
7 6 6 6 7 7 6 6 6 5 5 4 3 3 4 5 10 11 9 3 3 2 2 3 5 8 10 7 5 5 5 4 6 8 9 19 21 22 22 13 11 10 6
5 5 4 4 6 6 6 5 5 4 4 4 4 4 4 4 9 11 9 3 4 5 3 2 2 9 10 9 6 4 1 3 6 8 9 10 10 9 9 12 11 8 7
2 3 4 5 6 6 7 5 3 4 4 5 4 4 3 4 8 9 10 5 3 5 5 4 4 9 9 9 5 3 0 3 5 7 9 8 8 8 8 8 16 15 9
1 2 4 5 6 5 4 5 4 4 4 5 5 4 4 3 6 12 12 9 5 4 6 10 10 10 8 6 7 7 5 3 4 7 8 6 6 7 6 6 10 14 6
2 2 2 2 3 3 3 4 4 5 5 5 4 4 4 4 5 6 6 6 6 6 6 10 11 9 6 6 6 5 5 5 5 5 6 6 6 6 5 4 4 4 4
3 2 2 2 2 1 1 2 1 1 1 2 2 2 3 4 5 9 9 7 7 7 8 5 4 4 4 4 3 4 5 5 5 5 7 7 6 5 4 3 4 4 4
2 2 2 2 2 2 2 3 6 5 7 7 6 4 3 3 4 7 8 8 11 16 9 5 6 6 6 6 6 4 3 4 4 7 8 8 7 6 5 4 4 4 5
1 1 2 2 2 1 2 3 4 4 4 4 6 6 6 6 6 6 6 8 13 16 7 6 6 5 5 5 5 4 4 3 4 6 7 7 7 6 6 6 5 5 5
3 2 2 1 1 2 3 3 4 4 4 4 4 5 6 6 6 7 8 8 7 10 6 7 7 6 6 6 6 5 4 4 4 5 6 6 7 7 7 7 6 6 6
2 0 1 2 2 2 3 4 4 4 4 5 5 4 5 5 4 6 8 4 5 7 6 5 6 6 6 7 8 7 6 5 5 5 6 6 6 6 6 7 7 9 8
2 2 1 1 2 2 1 1 2 3 4 4 3 4 5 4 3 3 4 3 4 4 4 4 4 5 6 6 7 7 7 7 8 7 6 6 6 6 6 7 7 6 7
2 3 2 1 2 2 2 2 2 3 3 3 3 5 5 3 3 4 4 4 4 5 5 4 4 5 5 6 7 8 8 8 7 7 7 7 7 6 6 6 7 7 6
1 2 1 1 2 3 2 1 2 3 4 4 4 4 4 1 2 3 3 3 4 4 4 5 5 5 6 6 7 7 7 7 7 7 7 7 7 7 6 6 6 6 6
1 2 1 1 3 4 2 2 3 3 4 3 4 4 4 3 3 4 4 4 4 4 4 5 5 5 5 6 6 7 7 6 6 7 8 7 7 7 7 7 8 7 8
2 1 2 3 2 2 2 3 3 4 4 4 4 4 4 3 3 4 4 5 5 5 5 5 6 8 10 8 10 11 11 12 12 11 12 10 9 8 8 7 8 9 8
3 3 3 3 2 2 2 1 2 3 4 4 3 3 3 3 2 2 3 4 5 5 6 6 5 6 10 13 13 15 19 23 22 14 10 9 10 10 8 8 7 8 8
4 4 3 3 3 2 2 2 2 2 2 2 2 2 3 3 2 2 2 2 3 3 4 4 6 7 7 10 14 16 18 20 21 14 6 4 8 8 8 7 9 8 8
Wind_Direction
168 152 130 108 74 331 306 263 211 184 183 170 186 227 242 221 203 197 204 203 206 198 186 187 199 199 214 246 192 153 149 138 130 111 120 135 127 126 128 132 116 95 83
138 138 138 139 140 206 288 297 314 225 200 216 220 222 229 224 213 203 197 201 201 203 199 196 203 211 226 226 169 162 151 143 139 136 144 138 148 145 141 134 123 109 98
163 161 164 174 177 188 225 261 313 308 268 242 229 230 240 238 218 208 199 200 201 200 199 203 206 199 210 220 172 161 145 142 133 144 151 133 144 150 142 123 117 123 117
172 173 182 189 186 181 191 217 233 256 258 254 240 227 234 245 242 224 214 209 206 204 201 213 221 210 192 187 172 167 143 140 139 145 150 148 147 164 152 138 128 150 147
168 178 188 186 177 170 178 199 220 249 284 304 286 269 258 249 251 253 243 224 217 205 177 174 77 65 65 65 108 127 147 151 149 150 156 158 161 176 176 160 157 159 120
184 188 175 177 161 157 167 205 233 226 265 304 292 267 255 245 224 231 260 235 226 159 150 153 135 110 105 102 92 71 62 160 162 158 165 176 178 176 174 162 156 150 166
185 161 147 162 145 148 164 208 241 269 262 264 272 257 243 162 147 166 175 148 97 95 126 145 127 111 131 141 135 113 85 135 174 162 170 181 181 179 176 172 169 168 168
176 155 161 176 165 165 185 205 207 229 245 239 258 252 216 161 165 160 152 146 146 162 158 135 131 139 136 106 142 152 159 179 183 167 177 180 177 172 174 168 160 161 144
163 158 163 168 163 168 184 199 209 226 226 214 234 216 198 175 174 172 170 208 196 184 176 170 160 160 153 117 110 125 133 123 96 120 160 168 166 167 168 160 158 147 142
122 123 133 148 158 174 195 207 214 230 221 190 215 214 209 192 176 176 186 203 166 120 73 89 143 165 160 137 115 89 130 170 139 104 112 150 162 168 168 164 162 158 149
113 129 156 176 181 191 207 214 212 220 211 198 212 217 223 194 169 174 186 201 161 152 148 135 151 173 168 149 130 111 115 229 176 140 128 132 147 160 163 161 163 163 165
117 183 208 209 209 213 208 208 193 200 208 211 219 220 223 191 167 180 184 185 144 157 163 164 165 160 164 156 142 133 141 204 196 152 139 143 152 165 172 165 172 190 197
315 246 246 241 234 237 194 168 187 205 208 210 203 206 207 205 175 179 181 178 165 160 162 160 155 143 137 144 150 153 151 188 207 162 153 155 157 164 165 161 167 183 163
310 321 316 290 268 239 184 170 189 208 206 210 209 212 213 211 189 166 168 160 140 117 123 139 134 127 112 125 146 163 177 206 196 160 145 136 131 143 156 150 138 134 122
276 229 225 239 306 318 122 111 175 164 179 173 172 186 201 216 208 181 168 169 167 148 132 128 131 141 146 150 169 197 206 198 185 139 131 129 125 128 142 135 126 126 140
308 235 208 211 233 221 165 131 85 99 109 108 101 87 75 82 149 162 167 165 155 146 135 151 158 162 168 169 174 183 193 181 160 138 140 141 145 153 163 162 149 155 173
18 319 222 210 201 191 195 188 169 129 117 131 134 122 117 114 115 141 150 154 158 154 150 165 171 166 159 154 161 171 180 174 144 138 146 152 157 165 169 174 173 176 193
63 23 328 268 180 195 213 213 200 180 171 162 160 146 135 135 140 143 143 138 161 178 185 178 183 178 171 167 170 177 174 158 152 154 155 160 167 173 176 180 181 185 197
103 220 259 208 178 208 222 214 200 182 155 144 139 132 121 119 132 156 159 170 176 192 205 192 188 187 183 181 182 182 179 173 174 173 171 174 176 177 181 183 183 194 200
162 154 309 198 172 201 245 67 92 111 120 130 142 135 135 148 168 175 185 182 185 192 195 188 189 192 186 180 175 176 178 180 186 189 184 182 187 189 187 187 190 192 201
154 157 202 238 194 163 111 69 68 91 110 124 121 111 132 179 186 191 189 185 189 195 192 182 178 179 173 168 170 178 181 183 189 195 194 187 192 199 196 192 197 199 193
128 109 83 33 130 131 129 136 119 107 112 118 120 125 133 140 152 188 197 199 195 191 182 180 189 191 188 181 174 178 186 188 191 200 203 195 193 196 197 200 201 203 202
90 112 129 88 111 127 152 144 123 123 129 139 139 145 168 181 175 188 197 203 207 200 190 190 198 200 193 190 182 180 193 203 206 208 205 200 196 197 199 206 212 209 209
125 111 86 91 95 127 137 130 130 136 143 151 157 165 183 198 198 198 194 189 201 213 206 202 205 206 200 196 199 200 207 219 229 230 207 200 198 198 198 204 211 215 216
132 106 92 91 97 82 61 63 139 150 156 166 171 173 182 203 224 213 188 185 193 205 210 206 208 213 209 203 201 205 215 226 237 240 210 196 195 194 196 205 210 215 215
106 101 98 91 88 78 46 23 59 88 110 130 156 173 182 196 208 202 194 198 208 219 221 217 219 224 224 209 209 212 217 222 225 226 215 195 199 201 199 207 212 212 216
Height
1489 1491 1494 1496 1497 1497 1498 1501 1505 1508 1510 1511 1512 1514 1516 1517 1518 1519 1521 1522 1523 1524 1524 1526 1528 1531 1534 1538 1542 1544 1547 1550 1553 1555 1558 1560 1561 1562 1562 1562 1563 1563 1563
1487 1489 1492 1494 1496 1497 1499 1500 1503 1506 1507 1509 1510 1511 1512 1514 1515 1516 1517 1518 1519 1520 1520 1521 1523 1526 1529 1533 1538 1540 1544 1547 1549 1552 1554 1557 1560 1561 1561 1561 1562 1563 1563
1485 1487 1489 1492 1494 1496 1498 1500 1501 1503 1504 1506 1506 1507 1508 1510 1511 1512 1513 1515 1516 1517 1518 1520 1522 1524 1524 1528 1533 1537 1540 1543 1546 1549 1551 1554 1557 1560 1561 1560 1561 1562 1563
1483 1484 1487 1489 1491 1493 1495 1497 1498 1500 1501 1502 1503 1503 1504 1505 1507 1508 1509 1511 1513 1515 1516 1519 1521 1522 1523 1526 1530 1533 1536 1539 1542 1546 1549 1551 1554 1557 1559 1558 1559 1561 1562
1479 1481 1483 1486 1488 1490 1491 1493 1495 1496 1497 1498 1498 1498 1499 1500 1501 1503 1504 1507 1509 1511 1513 1516 1517 1519 1521 1523 1526 1530 1533 1535 1538 1542 1545 1548 1551 1553 1555 1556 1558 1559 1560
1475 1478 1480 1482 1484 1486 1488 1490 1492 1493 1493 1493 1494 1494 1494 1495 1496 1498 1500 1502 1505 1507 1509 1512 1514 1516 1519 1522 1524 1527 1530 1532 1534 1537 1541 1544 1546 1549 1552 1554 1556 1557 1558
1472 1474 1476 1479 1480 1483 1485 1486 1487 1488 1489 1489 1490 1490 1491 1492 1493 1495 1497 1499 1501 1503 1505 1508 1510 1513 1516 1519 1523 1525 1528 1529 1532 1534 1537 1541 1543 1544 1547 1550 1553 1555 1557
1469 1470 1472 1475 1477 1479 1481 1482 1483 1484 1485 1486 1486 1487 1488 1489 1490 1492 1494 1496 1498 1501 1503 1505 1508 1510 1513 1516 1519 1523 1525 1528 1531 1533 1535 1538 1541 1542 1544 1548 1551 1555 1558
1465 1465 1468 1471 1473 1475 1477 1478 1480 1481 1482 1482 1483 1484 1485 1486 1487 1489 1491 1493 1495 1498 1500 1502 1504 1507 1509 1512 1515 1519 1522 1525 1529 1532 1533 1536 1539 1541 1542 1545 1549 1552 1554
1461 1463 1465 1467 1470 1472 1473 1475 1476 1477 1478 1479 1480 1481 1483 1484 1485 1486 1488 1490 1493 1495 1497 1499 1501 1503 1505 1508 1511 1513 1517 1521 1525 1528 1531 1534 1537 1539 1541 1543 1546 1548 1551
1458 1460 1462 1464 1466 1468 1470 1471 1473 1474 1475 1476 1478 1479 1480 1482 1483 1485 1487 1489 1491 1492 1494 1496 1498 1499 1501 1504 1507 1509 1513 1518 1522 1525 1528 1531 1534 1537 1539 1542 1544 1546 1548
1456 1458 1459 1461 1463 1465 1466 1468 1469 1471 1472 1474 1475 1477 1479 1481 1482 1484 1486 1487 1488 1490 1491 1492 1494 1495 1497 1499 1502 1506 1510 1514 1519 1522 1525 1528 1531 1534 1536 1539 1541 1544 1546
1455 1456 1457 1458 1460 1462 1464 1465 1466 1467 1469 1471 1472 1474 1477 1479 1480 1482 1484 1485 1486 1487 1488 1490 1491 1492 1494 1496 1499 1503 1507 1511 1516 1520 1521 1525 1529 1532 1534 1536 1539 1542 1544
1453 1453 1453 1454 1456 1459 1460 1461 1463 1464 1466 1467 1469 1471 1473 1475 1477 1478 1480 1482 1483 1484 1486 1487 1488 1490 1492 1494 1497 1501 1505 1509 1513 1517 1520 1523 1526 1529 1531 1533 1535 1538 1539
1450 1450 1450 1451 1453 1455 1457 1458 1460 1461 1463 1465 1466 1468 1469 1471 1473 1475 1476 1478 1479 1481 1483 1484 1485 1487 1489 1492 1495 1499 1504 1508 1512 1515 1517 1520 1522 1525 1527 1529 1531 1533 1535
1448 1448 1448 1449 1451 1453 1454 1456 1457 1459 1460 1461 1463 1464 1466 1468 1469 1471 1472 1474 1475 1477 1480 1481 1482 1484 1486 1489 1492 1496 1501 1505 1508 1511 1513 1516 1518 1521 1523 1525 1526 1528 1529
1446 1446 1447 1448 1449 1450 1451 1453 1454 1456 1457 1459 1460 1462 1463 1465 1467 1468 1469 1470 1472 1474 1476 1478 1480 1482 1484 1487 1490 1494 1497 1501 1504 1507 1509 1512 1514 1516 1518 1519 1520 1522 1524
1445 1445 1445 1446 1447 1448 1449 1450 1451 1453 1454 1456 1458 1459 1461 1462 1463 1464 1465 1467 1469 1471 1473 1476 1478 1480 1483 1485 1488 1492 1495 1498 1500 1503 1506 1508 1510 1512 1513 1514 1515 1517 1519
1444 1444 1445 1445 1446 1446 1448 1449 1450 1452 1453 1454 1455 1456 1458 1459 1460 1461 1462 1463 1465 1468 1470 1473 1475 1478 1480 1483 1486 1489 1492 1494 1497 1499 1502 1504 1506 1507 1508 1509 1511 1512 1514
1443 1444 1445 1445 1446 1447 1448 1450 1451 1452 1453 1453 1454 1455 1456 1457 1458 1458 1459 1461 1462 1465 1467 1469 1471 1474 1476 1478 1481 1484 1486 1489 1492 1495 1497 1499 1501 1503 1504 1505 1506 1507 1509
1443 1444 1444 1445 1446 1447 1449 1450 1451 1452 1453 1453 1454 1455 1455 1456 1456 1457 1457 1458 1460 1462 1463 1465 1467 1470 1472 1474 1476 1479 1481 1483 1487 1490 1492 1494 1496 1498 1500 1501 1502 1503 1504
1444 1444 1445 1445 1446 1448 1449 1450 1451 1451 1452 1452 1453 1454 1454 1455 1455 1455 1456 1456 1457 1459 1461 1462 1463 1465 1467 1470 1472 1474 1476 1478 1481 1484 1487 1490 1492 1494 1496 1497 1497 1498 1499
1443 1444 1445 1445 1446 1447 1448 1449 1450 1451 1452 1452 1452 1453 1454 1455 1455 1455 1455 1455 1456 1457 1458 1459 1460 1461 1462 1464 1466 1468 1470 1474 1477 1480 1483 1486 1487 1489 1490 1491 1492 1493 1494
1442 1443 1444 1445 1446 1447 1448 1449 1450 1451 1452 1452 1453 1454 1454 1455 1455 1455 1455 1455 1455 1455 1455 1456 1457 1457 1458 1459 1461 1464 1466 1470 1473 1476 1479 1480 1482 1483 1484 1485 1486 1488 1489
1442 1443 1444 1445 1446 1447 1448 1449 1450 1451 1452 1453 1453 1454 1454 1454 1455 1455 1455 1454 1454 1454 1453 1454 1454 1454 1455 1456 1458 1460 1463 1467 1470 1473 1475 1476 1476 1477 1478 1479 1480 1481 1482
1443 1443 1444 1445 1446 1446 1448 1449 1450 1451 1451 1452 1453 1453 1454 1454 1454 1454 1454 1453 1453 1453 1453 1452 1452 1452 1453 1454 1456 1458 1460 1463 1466 1468 1470 1471 1471 1471 1472 1472 1473 1474 1475